Tracking 30692 objects as of 17-Jun-2025
HD Live streaming from Space Station
objects crossing your sky now

STARLINK-2696

Track STARLINK-2696 now!
10-day predictions
STARLINK-2696 is classified as:


NORAD ID: 48484
Int'l Code: 2021-040BJ
Perigee: 425.6 km
Apogee: 427.0 km
Inclination: 53.0 °
Period: 93.0 minutes
Semi major axis: 6797 km
RCS: Unknown
Launch date: May 9, 2021
Source: United States (US)
Launch site: AIR FORCE EASTERN TEST RANGE (AFETR)
Your satellite tracking list
Your tracking list is empty




NASA's NSSDC Master Catalog

Two Line Element Set (TLE):
1 48484U 21040BJ  25167.57067652  .00070920  00000-0  12781-2 0  9993
2 48484  53.0453 271.4859 0001079 338.6578  21.4384 15.49161966226878
Source of the keplerian elements: AFSPC